Flag for Norway Weather past 2 weeks in Ålesund, Norway

Now
46 °F

Passing clouds.


Feels Like: 38 °F
Forecast: 42 / 49 °F
Wind: 24 mph from Southwest

Location: Alesund / Vigra

Current Time: Mar 7, 2015 at 1:19:12 AM

Latest Report: Mar 7, 2015 at 12:50 AM


Visibility: N/A

Pressure: 29.47 "Hg

Humidity: 66%

Dew point: 36 °F

Location of ÅlesundLocation

Historic Weather in Ålesund — Graph

°F

Ålesund temperature yesterday

Maximum temperature yesterday: 48 °F (at 9:20 PM)
Minimum temperature yesterday: 41 °F (at 2:50 AM)
Average temperature yesterday: 44 °F

Past Weeks' High & Low Weather Summary

 TemperatureHumidityPressure
High52 °F (Mar 1, 12:20 PM)100% (Feb 21, 2:50 PM)30.12 "Hg (Feb 21, 2:50 PM)
Low30 °F (Feb 22, 8:20 PM)38% (Mar 1, 2:20 PM)28.53 "Hg (Mar 1, 3:50 PM)
Average41 °F72%29.32 "Hg
* Reported Feb 19 11:50 PM — Mar 6 11:50 PM, Ålesund, Weather by CustomWeather, © 2015

Note: Actual official high and low records may vary slightly from our data, if they occured in-between our weather recording intervals... More about our weather records

Advertising

Ålesund weather history for previous 24 hours

 ConditionsComfort  
Time TempWeatherWind HumidityBarometerVisibility
11:50 PM
Fri, Mar 6
46 °FPassing clouds.25 mph66%29.50 "HgN/A
11:20 PM46 °FPassing clouds.28 mph66%29.53 "HgN/A
10:50 PM46 °FPassing clouds.25 mph66%29.53 "HgN/A
10:20 PM46 °FPassing clouds.23 mph66%29.56 "HgN/A
9:50 PM48 °FSprinkles. Passing clouds.22 mph62%29.59 "HgN/A
9:20 PM48 °FSprinkles. Passing clouds.20 mph58%29.62 "HgN/A
8:50 PM46 °FPassing clouds.16 mph66%29.62 "HgN/A
8:20 PM46 °FPassing clouds.16 mph66%29.65 "HgN/A
7:50 PM46 °FPassing clouds.20 mph66%29.68 "HgN/A
7:20 PM46 °FPassing clouds.14 mph66%29.71 "HgN/A
6:50 PM46 °FPassing clouds.16 mph66%29.74 "HgN/A
6:20 PM46 °FPassing clouds.14 mph62%29.77 "HgN/A
5:50 PM46 °FPartly sunny.17 mph62%29.77 "HgN/A
5:20 PM46 °FPartly sunny.13 mph62%29.80 "HgN/A
4:50 PM46 °FPartly sunny.14 mph57%29.83 "HgN/A
4:20 PM46 °FPartly sunny.16 mph57%29.86 "HgN/A
3:50 PM46 °FPartly sunny.17 mph57%29.89 "HgN/A
3:20 PM46 °FPartly sunny.15 mph57%29.92 "HgN/A
2:50 PM45 °FPartly sunny.14 mph66%29.95 "HgN/A
2:20 PM46 °FSunny.17 mph57%29.95 "Hg10 mi
1:50 PM45 °FPassing clouds.18 mph61%29.98 "HgN/A
1:20 PM46 °FPassing clouds.16 mph62%29.98 "HgN/A
12:50 PM45 °FBroken clouds.15 mph66%30.01 "HgN/A
12:20 PM45 °FPassing clouds.13 mph66%30.04 "HgN/A
11:50 AM43 °FScattered clouds.15 mph76%30.01 "HgN/A
11:20 AM43 °FScattered showers. Scattered clouds.14 mph76%30.04 "HgN/A
10:50 AM43 °FScattered showers. Scattered clouds.15 mph71%30.04 "HgN/A
10:20 AM45 °FPassing clouds.17 mph66%30.04 "HgN/A
9:50 AM43 °FScattered showers. Partly sunny.17 mph71%30.04 "HgN/A
9:20 AM43 °FScattered showers. Scattered clouds.14 mph76%30.04 "HgN/A
8:50 AM43 °FScattered showers. Scattered clouds.15 mph76%30.04 "HgN/A
8:20 AM43 °FScattered clouds.18 mph76%30.04 "HgN/A
7:50 AM41 °FPassing clouds.10 mph81%30.04 "HgN/A
7:20 AM41 °FScattered showers. Partly cloudy.18 mph81%30.01 "HgN/A
6:50 AM41 °FPassing clouds.15 mph81%30.01 "HgN/A
6:20 AM41 °FPassing clouds.20 mph76%30.01 "HgN/A
5:50 AM41 °FPassing clouds.14 mph81%30.01 "HgN/A
5:20 AM43 °FPassing clouds.22 mph76%30.01 "HgN/A
4:50 AM41 °FMostly cloudy.14 mph81%30.01 "HgN/A
4:20 AM43 °FPassing clouds.25 mph76%29.98 "HgN/A
3:50 AM43 °FPassing clouds.22 mph81%29.98 "HgN/A
3:20 AM41 °FPartly cloudy.18 mph81%29.98 "HgN/A
2:50 AM41 °FPassing clouds.23 mph81%29.98 "HgN/A
2:20 AM43 °FPartly cloudy.21 mph71%29.95 "HgN/A
1:50 AM43 °FQuite cool.18 mph81%29.95 "HgN/A
1:20 AM43 °FPassing clouds.20 mph81%29.95 "HgN/A
Weather by CustomWeather, © 2015

See weather overviewHow to use our weather pages